Overview Statistics Trail Chart Weather Telemetry Raw packets
 

This is the latest recevied weather packets stored in our database for station/object KC9DRE. If no packets are shown the sender has not sent any weather packets the latest 10 day(s).

<< 101 102 103 104 105 106 107 >>
Time Temp. Humidity Pressure Rain* Wind** Luminosity Snow
1777120276 12.78° C 99% 1011.7 hPa 0 mm - 120 W/m² -
1777119970 12.78° C 99% 1011.8 hPa 0 mm - 115 W/m² -
1777119668 12.78° C 99% 1011.7 hPa 0 mm - 106 W/m² -
1777119363 12.22° C 99% 1011.8 hPa 0 mm - 94 W/m² -
1777119058 11.67° C 99% 1011.6 hPa 0 mm - 90 W/m² -
1777118754 11.67° C 99% 1011.4 hPa 0 mm - 78 W/m² -
1777118450 11.11° C 99% 1011.3 hPa 0 mm - 69 W/m² -
1777118146 11.11° C 99% 1011.4 hPa 0 mm - 61 W/m² -
1777117843 11.11° C 99% 1011.4 hPa 0 mm - 54 W/m² -
1777117540 10.56° C 99% 1011.6 hPa 0 mm - 51 W/m² -
1777117238 10.56° C 99% 1011.4 hPa 0 mm - 45 W/m² -
1777116938 10° C 99% 1011.1 hPa 0 mm - 37 W/m² -
1777116634 10° C 99% 1011.2 hPa 0 mm - 31 W/m² -
1777116329 10° C 99% 1011.1 hPa 0 mm - 26 W/m² -
1777116025 10° C 99% 1011.2 hPa 0 mm - 20 W/m² -
1777115719 10° C 99% 1010.9 hPa 0 mm - 14 W/m² -
1777115416 10° C 99% 1010.9 hPa 0 mm - 9 W/m² -
1777115113 10° C 99% 1010.9 hPa 0 mm - 6 W/m² -
1777114810 10° C 99% 1010.9 hPa 0 mm - 3 W/m² -
1777114506 10° C 99% 1010.9 hPa 0 mm - 2 W/m² -
1777114200 10° C 99% 1010.9 hPa 0 mm - 1 W/m² -
1777113896 10° C 99% 1010.8 hPa 0 mm - 1 W/m² -
1777113595 10° C 99% 1010.7 hPa 0 mm - 0 W/m² -
1777113291 10° C 99% 1010.8 hPa 0 mm - 0 W/m² -
1777112985 10° C 99% 1010.5 hPa 0 mm - 0 W/m² -

* Rain latest hour (hover to see other rain measurements)
** Current wind speed in m/s (hover to see current wind gust speed)